{"data":{"norad_id":57882,"intl_designator":"2023-144U","name":"STARLINK-30339","alt_names":[],"object_type":"PAYLOAD","status":"ACTIVE","operator":null,"country":"US","launch_date":"2023-09-16","launch_site_code":"AFETR","launch_vehicle":null,"mission":null,"orbit_class":"UNKNOWN","rcs_meters":null,"size_class":null,"mass_kg":null,"dimensions":null,"purposes":["comms"],"wikipedia_slug":null,"has_3d_model":false,"image_url":null,"decayed_at":null,"tle_current":{"epoch":"2026-05-24T13:03:35.296128Z","epoch_age_seconds":121405,"freshness":"FRESH","line1":"1 57882U 23144U   26144.54415852  .00001179  00000+0  52356-4 0  9997","line2":"2 57882  42.9991 217.2188 0001532 273.6742  86.3935 15.27584202149236","mean_motion":15.27584202,"eccentricity":0.0001532,"inclination_deg":42.9991,"raan_deg":217.2188,"arg_perigee_deg":273.6742,"mean_anomaly_deg":86.3935,"bstar":5.2356e-5,"rev_number":14923,"period_min":94.266489409531,"perigee_km":481.98538198652,"apogee_km":484.08764555114,"semimajor_km":6861.1735137688,"source":"CELESTRAK","updated_at":"2026-05-25T13:38:18.450196Z"}}}